#timestamp,LO_Frequency,Hit,StdDev 
1643090415.1,286047003.7,N
1643090435.8,286047003.0,N
1643090455.7,286047003.0,N
1643090475.5,286047001.8,N
1643090495.4,286047002.7,N
1643090515.2,286047002.5,N
1643090535.0,286047002.5,N
1643090535.9,286047002.5,N
1643090555.8,286047001.6,N
1643090575.6,286047001.7,N
1643090595.5,286047001.7,N
1643090615.3,286047002.2,N
1643090635.1,286047002.6,N
1643090655.9,286047002.2,N
1643090675.7,286047003.1,Y
1643090695.5,286047002.6,P
1643090715.4,286047002.4,P
1643090735.2,286047002.4,P
1643090755.1,286047000.2,N
1643090756.0,286047000.2,N
1643090775.8,286046999.7,N
1643090795.6,286047002.5,N
1643090815.5,286047001.9,N
1643090835.3,286047004.4,Y
1643090855.2,286047000.3,P
1643090875.9,286047001.0,N
1643090895.7,286046998.2,P
1643090915.6,286046996.6,N
1643090935.4,286046999.8,N
1643090955.2,286046996.5,N
1643090975.1,286046999.6,N
1643090976.0,286046999.6,N
1643090995.8,286046996.8,N
1643091015.7,286046999.5,N
1643091035.5,286046999.1,N
1643091055.3,286046998.8,N
1643091075.2,286046998.4,N
1643091095.0,286047000.6,N
1643091095.9,286047000.6,N
1643091115.8,286046998.4,N
1643091135.6,286046998.8,N
1643091155.4,286046999.3,N
1643091175.3,286046998.2,N
1643091195.1,286046998.8,N
1643091215.9,286046998.4,N
1643091235.7,286047000.7,N
1643091255.5,286047001.1,N
1643091275.4,286047001.0,N
1643091295.2,286046999.4,N
1643091315.0,286046996.5,N
1643091315.9,286046996.5,N
1643091335.8,286046996.5,N
1643091355.6,286046999.6,N
1643091375.5,286046999.2,N
1643091395.3,286046999.4,N
1643091415.1,286047001.2,N
1643091435.9,286047002.5,N
1643091455.7,286046999.7,N
1643091475.5,286047000.1,N
1643091495.4,286046998.3,N
1643091515.2,286047000.4,N
1643091535.1,286046998.2,N
1643091536.0,286046998.2,N
1643091555.8,286046998.9,N
1643091575.6,286046999.3,N
1643091595.5,286046999.6,N
1643091615.3,286046999.6,N
1643091635.1,286046998.7,N
1643091655.9,286046998.5,N
1643091675.7,286046998.3,N
1643091695.6,286046999.6,N
1643091715.4,286046999.4,N
1643091735.2,286047000.5,N
1643091755.1,286047000.5,N
1643091756.0,286047000.5,N
1643091775.8,286047001.1,N
1643091795.7,286047000.5,N
1643091815.5,286046998.5,N
1643091835.3,286046998.9,N
1643091855.2,286046998.7,N
1643091875.9,286046999.1,N
1643091895.7,286046998.3,N
1643091915.6,286047002.2,N
1643091935.4,286047000.1,N
1643091955.2,286047001.2,N
1643091975.1,286046999.6,N
1643091976.0,286046999.6,N
1643091995.8,286046997.0,Y
1643092015.7,286046999.3,P
1643092035.5,286046999.0,P
1643092055.3,286046999.0,P
1643092075.2,286046999.6,N
1643092095.0,286046999.2,Y
1643092095.9,286046999.2,P
1643092115.8,286047000.6,P
1643092135.6,286046998.2,N
1643092155.4,286046998.5,N
1643092175.3,286046998.3,N
1643092195.1,286046998.3,N
1643092215.8,286046998.6,N
1643092235.7,286046998.6,N
1643092255.5,286047001.0,N
1643092275.4,286047000.3,N
1643092295.2,286047002.6,N
1643092315.0,286047002.6,N
1643092315.9,286047002.6,N
1643092335.8,286047002.3,N
1643092355.6,286047002.1,N
1643092375.4,286047002.0,N
1643092395.3,286047002.5,N
1643092415.1,286047002.4,N
1643092435.9,286047000.7,N
1643092455.7,286047002.4,N
1643092475.5,286047002.7,N
1643092495.4,286046998.6,N
1643092515.2,286047002.2,N
1643092535.0,286047001.3,N
1643092536.0,286047001.3,N
1643092555.8,286047004.4,N
1643092575.6,286047001.7,N
1643092595.5,286047002.5,N
1643092615.3,286047000.0,N
1643092635.1,286047001.9,N
1643092655.9,286047002.2,N
1643092675.7,286047002.2,N
1643092695.6,286047001.8,N
1643092715.4,286047004.1,N
1643092735.2,286047002.5,N
1643092755.1,286047000.0,N
1643092756.0,286047000.0,N
1643092775.8,286046999.7,N
1643092795.6,286046999.8,N
1643092815.5,286047000.7,N
1643092835.3,286046999.9,N
1643092855.2,286047000.7,N
1643092875.9,286046999.8,N
1643092895.7,286047001.6,N
1643092915.6,286047000.1,N
1643092935.4,286047000.2,N
1643092955.3,286047000.1,N
1643092975.1,286047000.3,N
1643092976.0,286047000.3,N
1643092995.8,286047000.1,N
1643093015.7,286047000.6,N
1643093035.5,286047002.4,N
1643093055.3,286047002.6,N
1643093075.2,286047001.5,N
1643093095.0,286047002.4,N
1643093095.9,286047002.4,N
1643093115.8,286047002.3,N
1643093135.6,286047001.5,N
1643093155.4,286047002.0,N
1643093175.3,286047001.4,N
1643093195.1,286047001.5,N
1643093215.8,286047002.1,N
1643093235.7,286047003.2,N
1643093255.5,286047003.5,N
1643093275.4,286047004.0,Y
1643093295.2,286047000.6,P
1643093315.1,286046996.5,P
1643093316.0,286046996.5,N
1643093335.8,286046998.2,N
1643093355.6,286046999.6,N
1643093375.5,286046998.9,N
1643093395.3,286046998.1,N
1643093415.1,286046999.7,N
1643093435.9,286047000.6,N
1643093455.7,286046998.6,N
1643093475.6,286046998.8,N
1643093495.4,286046998.2,N
1643093515.2,286046998.6,N
1643093535.1,286046998.9,N
1643093536.0,286046998.9,N
1643093555.8,286047000.4,N
1643093575.6,286046999.9,N
1643093595.5,286047000.4,N
1643093615.3,286047000.9,N
1643093635.2,286047001.0,N
1643093655.9,286047000.0,N
1643093675.7,286046999.5,N
1643093695.6,286046996.8,N
1643093715.4,286046996.6,N
1643093735.2,286046996.9,N
1643093755.1,286046996.6,N
1643093756.0,286046996.6,N
1643093775.8,286046998.9,N
1643093795.7,286046998.1,N
1643093815.5,286047002.7,N
1643093835.3,286047000.5,N
1643093855.2,286047000.9,N
1643093875.0,286047000.3,N
1643093875.9,286047000.3,N
1643093895.7,286046998.3,N
1643093915.6,286046998.1,N
1643093935.4,286046998.6,N
1643093955.3,286046996.5,N
1643093975.1,286046996.6,N
1643093976.0,286046996.6,N
1643093995.8,286046996.6,N
